Theta_e
292 290 291 291 291 290 290 290 290 289 291 290 288 288 291 291 286 286 292 294 294 297 301 304 305 307 310 312 313 315 317 318 319 320 318 315 313 314 315 320 324 327 330 333 336 336 338 338 338 339 339 339 341 342 341 340 342 343 344 343 342 342 342 343 343 343 344 345 345 345 345 344 345 345 345 345 344 343 343 344 342 342 342 341 339 338 338
291 291 291 292 290 290 290 290 291 290 289 289 289 287 288 287 287 290 291 293 294 301 301 304 306 311 313 313 316 316 316 316 315 317 315 313 313 313 315 319 324 327 330 333 335 337 337 339 339 339 339 339 339 340 340 340 340 343 342 342 341 341 341 342 343 343 344 344 344 344 344 344 344 344 344 344 344 343 342 342 341 341 341 340 338 337 336
290 291 292 292 291 290 287 290 292 291 291 291 291 291 292 294 290 291 289 291 296 305 308 307 310 314 314 314 313 314 315 313 312 312 312 312 312 313 314 319 322 324 328 331 334 336 336 338 339 338 338 339 340 340 340 340 340 342 342 342 342 342 341 342 342 342 342 342 344 344 344 344 344 344 343 343 343 342 341 340 340 339 338 337 337 336 335
287 290 291 291 292 290 288 288 291 291 291 289 292 289 292 288 290 294 297 296 297 304 307 307 308 312 312 311 313 315 316 317 314 311 312 312 313 315 317 319 322 324 328 332 333 335 337 338 339 338 338 339 339 338 339 339 340 341 342 341 341 341 341 342 342 342 342 343 342 343 343 342 341 341 342 342 342 340 339 339 339 338 337 336 337 337 336
285 291 292 291 291 289 286 287 293 294 294 294 295 296 297 296 298 293 291 294 302 306 307 304 306 309 310 311 311 314 317 319 320 317 315 314 315 317 320 321 324 327 330 333 335 335 337 337 338 338 338 337 338 338 339 340 341 341 340 341 341 341 341 341 342 343 343 342 342 341 341 341 341 341 341 341 341 339 338 339 339 337 335 336 337 336 336
285 290 291 292 287 281 283 295 300 297 293 294 292 292 296 297 299 299 302 302 306 307 307 304 305 308 308 310 312 315 316 319 321 323 322 322 322 324 325 327 330 331 332 333 334 336 337 337 337 339 340 339 339 340 340 340 340 339 340 340 341 340 341 341 342 343 342 341 340 340 341 342 341 341 340 339 340 339 338 337 337 335 335 334 335 334 334
286 290 291 285 280 282 294 299 300 300 300 300 297 297 299 302 303 303 303 304 305 307 309 308 309 309 312 314 314 314 316 317 321 322 324 325 326 327 329 330 331 331 333 335 335 336 336 337 339 340 339 340 340 340 340 338 339 339 340 340 339 339 339 340 342 342 341 340 339 339 341 340 340 339 339 339 338 337 336 335 335 334 333 333 334 334 333
290 287 286 279 281 293 293 298 299 300 302 300 298 295 300 303 304 304 302 304 306 307 308 311 311 312 312 315 314 315 316 318 318 318 323 325 327 328 329 330 332 333 333 333 335 336 337 339 340 339 339 341 340 339 339 337 338 338 339 338 339 339 339 340 340 340 340 340 339 339 339 338 337 337 337 338 337 337 336 336 335 334 334 334 333 333 332
285 287 287 286 292 292 292 289 295 295 293 294 292 288 295 304 304 304 304 305 306 308 311 311 311 311 313 312 311 315 315 316 318 318 318 322 330 331 331 333 333 336 335 336 337 338 339 338 338 339 340 340 339 339 338 338 338 339 338 338 337 339 339 340 340 340 340 339 338 338 337 337 336 337 337 335 336 335 334 334 333 332 333 333 333 333 331
291 287 286 286 285 283 287 294 299 300 300 301 301 296 296 305 305 307 305 304 306 308 310 310 311 313 309 305 306 312 316 317 318 319 319 322 323 330 333 335 336 336 337 338 339 337 338 339 339 341 341 340 339 337 337 338 336 336 337 337 338 337 339 340 339 339 339 338 337 337 337 336 336 337 337 337 336 334 333 331 331 332 334 333 332 332 331
290 287 285 284 282 285 293 295 299 303 306 304 302 297 292 303 306 307 306 305 306 308 309 309 311 308 303 303 306 313 315 316 318 317 319 320 321 322 326 334 336 337 337 338 338 338 338 337 339 341 341 339 337 336 336 337 336 335 336 337 338 338 338 339 339 339 339 339 338 337 336 336 337 336 336 336 334 334 333 332 331 332 332 331 331 331 331
289 288 286 284 287 286 295 300 302 304 306 304 300 288 288 302 306 308 307 306 306 308 310 311 309 306 301 304 308 315 316 317 318 318 318 320 321 321 323 325 331 336 338 336 336 336 335 337 341 340 340 339 338 337 337 338 337 336 337 338 339 339 339 340 340 339 339 338 337 336 335 336 337 336 335 333 332 332 332 331 330 331 332 332 330 330 331
289 288 289 290 289 294 301 302 304 306 306 300 290 285 293 304 307 307 308 308 309 309 309 310 306 309 311 312 315 316 317 317 317 319 320 320 320 320 322 322 317 325 327 329 331 334 337 339 340 341 339 338 337 337 338 338 337 338 339 340 340 340 340 339 338 338 338 338 337 336 336 336 338 335 333 332 331 332 331 331 331 331 331 332 330 329 329
288 289 287 287 289 293 302 304 307 307 302 288 288 298 306 306 306 308 309 309 310 310 310 311 311 312 315 315 316 316 316 316 317 318 319 320 320 321 320 318 321 324 325 326 326 328 330 333 338 340 340 337 335 336 336 336 337 339 339 339 338 338 338 337 337 337 338 338 337 337 337 337 334 331 331 331 331 331 330 331 332 330 329 328 328 329 329
292 290 287 286 282 292 303 304 304 304 293 293 301 304 307 309 308 307 308 310 310 312 310 311 312 313 313 314 314 315 316 317 316 317 317 318 318 319 321 321 322 324 324 324 324 325 328 331 332 333 332 331 332 333 334 336 338 338 338 337 336 336 336 335 336 336 337 337 337 336 335 335 333 331 330 329 330 330 329 329 330 328 326 327 327 327 327
287 286 284 284 291 297 304 302 292 300 302 305 306 306 304 309 309 308 309 310 311 313 312 311 311 311 311 312 313 313 313 315 315 316 317 317 317 318 320 322 322 322 323 323 323 326 329 331 331 330 329 325 323 324 326 332 334 333 334 335 336 335 336 336 336 336 336 336 335 334 334 333 333 331 329 329 328 328 328 327 326 326 326 327 327 327 325
290 287 290 296 300 303 305 304 303 304 307 308 309 308 307 307 307 310 310 309 312 313 312 311 311 310 310 310 311 310 310 312 313 313 314 315 316 317 317 318 320 321 321 321 321 323 325 327 329 329 328 326 324 325 328 331 331 331 331 331 333 332 333 335 335 335 334 333 332 332 331 331 329 328 327 326 324 325 326 326 325 324 324 325 326 325 325
297 300 301 301 302 302 303 305 306 306 306 308 309 308 306 308 307 309 309 310 311 312 313 311 310 310 310 309 309 310 310 310 311 312 313 314 315 317 318 319 319 320 321 320 320 319 321 324 324 325 327 325 322 323 328 330 332 332 331 331 332 332 331 331 331 332 331 329 329 329 330 330 328 326 325 324 324 325 326 325 324 324 323 324 323 324 323
294 288 298 298 299 301 301 302 304 306 307 307 308 308 309 309 310 310 312 311 311 311 312 311 309 309 309 309 309 309 309 308 309 310 310 311 312 314 315 316 316 318 319 318 318 318 319 321 322 323 324 325 325 326 328 331 332 332 333 333 331 331 330 330 331 331 329 327 327 328 328 327 326 325 326 326 324 323 324 323 324 323 322 322 323 322 322
291 290 296 298 301 303 302 302 302 302 304 307 309 309 309 309 311 312 312 312 310 311 310 310 309 308 309 308 308 309 309 308 308 308 309 310 311 312 313 315 316 316 316 316 316 315 315 317 318 319 320 321 323 326 328 330 332 332 330 329 330 330 330 329 328 327 323 306 315 318 314 316 320 325 325 324 323 323 323 323 322 322 322 321 322 322 321
295 298 297 298 300 300 300 303 303 304 305 306 307 309 309 309 311 312 313 312 310 310 309 311 310 307 307 307 308 308 308 308 308 307 308 309 309 310 310 311 312 313 314 314 313 312 312 314 315 315 316 318 321 325 327 329 330 328 327 324 329 328 326 326 324 323 323 319 316 312 308 301 296 294 300 314 325 323 317 319 325 326 325 323 322 324 324
289 289 293 297 291 290 297 300 302 304 305 305 307 308 308 308 309 311 311 311 312 311 311 310 309 307 307 307 307 306 306 306 307 308 308 309 309 310 310 310 311 312 313 313 311 311 312 313 313 313 314 315 318 321 325 327 327 325 325 325 326 325 323 321 320 318 317 316 316 315 311 306 303 301 291 290 295 315 314 296 291 292 301 322 327 326 325
289 295 298 300 299 299 299 302 304 305 305 305 305 306 306 307 309 311 310 310 310 310 310 311 310 309 308 308 308 307 306 306 307 308 309 308 308 309 310 309 308 309 309 310 311 311 313 314 313 312 313 315 317 318 321 324 326 324 323 320 319 320 320 319 315 316 317 317 318 316 315 313 312 309 307 301 291 290 291 292 292 292 292 293 295 298 315
299 300 300 301 300 297 300 303 305 304 305 304 305 307 307 308 309 310 310 310 309 309 310 310 310 309 309 309 308 306 306 307 307 307 308 308 308 309 309 308 307 307 307 307 308 310 313 314 314 314 314 316 318 319 320 321 322 322 321 319 316 316 315 315 314 316 317 317 318 319 318 317 316 313 311 308 303 294 290 291 291 291 291 291 291 293 297
296 301 302 302 302 302 304 305 305 306 306 305 305 306 306 307 309 311 310 310 311 310 309 309 309 310 309 309 309 307 306 306 307 306 306 306 305 307 307 307 306 306 307 307 308 310 312 314 315 315 314 315 317 318 319 319 320 319 319 318 316 315 314 314 313 313 315 316 318 319 317 316 316 316 312 307 304 302 298 292 291 291 290 291 291 291 291
302 302 303 304 303 303 304 304 304 305 306 306 307 308 308 307 309 311 311 311 311 312 311 310 309 310 311 309 309 309 307 306 306 306 307 306 307 307 306 306 307 307 308 307 307 309 310 312 314 315 315 316 318 320 320 320 319 318 316 315 315 316 317 318 317 318 319 320 319 319 321 320 318 314 307 304 303 303 303 304 305 299 294 291 291 292 291
303 303 303 301 300 301 302 300 300 305 306 306 306 308 309 309 308 311 312 313 312 312 312 312 311 311 311 310 308 308 307 307 307 307 307 307 306 306 308 308 308 307 307 308 308 307 306 309 310 310 311 313 316 318 319 320 320 318 317 316 313 301 295 307 316 314 315 316 316 316 314 313 313 312 312 309 307 309 309 306 301 298 298 297 292 290 294
303 303 303 298 297 298 300 303 305 306 307 306 306 307 309 310 309 309 310 310 311 312 312 312 312 311 310 311 310 308 308 308 306 307 306 306 307 308 308 308 308 308 308 307 308 308 309 310 310 309 309 312 314 316 317 318 318 318 318 319 318 318 317 314 316 315 313 313 314 313 312 310 308 305 304 304 305 304 302 301 298 297 295 294 294 291 290
301 302 303 302 302 302 303 304 305 305 305 305 306 306 306 307 307 307 308 309 310 311 310 311 311 311 311 310 309 308 307 307 307 307 307 308 309 310 310 309 309 308 307 306 307 308 309 309 309 308 309 311 313 314 316 317 317 317 318 318 318 316 315 315 314 313 310 309 308 307 301 303 305 306 303 302 302 303 301 300 298 297 297 297 298 297 294
302 302 302 301 301 301 301 300 302 303 303 303 303 304 305 305 304 303 304 307 310 309 311 311 310 310 311 311 309 309 307 307 307 308 308 307 308 309 310 311 309 308 307 306 306 307 308 307 307 306 307 310 311 312 313 314 314 313 310 308 307 308 313 315 314 312 311 309 306 298 305 307 309 309 305 305 303 301 300 299 299 299 299 298 296 298 297
301 301 301 301 300 300 299 300 302 302 303 303 302 302 303 304 304 303 303 305 306 308 310 310 310 310 310 309 310 310 310 309 309 309 308 308 307 307 306 307 305 303 303 304 305 306 306 306 306 306 308 310 310 311 312 312 313 313 311 309 306 294 292 293 298 310 308 306 305 307 305 304 304 302 301 302 302 301 301 301 300 299 298 298 297 296 296
300 299 299 299 299 298 299 300 301 301 302 303 302 300 302 302 302 302 303 303 304 305 306 308 309 309 310 311 311 311 311 310 309 308 308 307 307 306 306 305 304 299 304 304 304 304 305 305 305 306 308 309 310 311 311 311 311 310 309 303 309 308 301 297 305 305 303 302 305 304 303 304 303 303 302 302 301 301 300 300 299 298 298 297 297 298 299
297 297 295 295 296 296 298 300 300 300 301 301 301 302 302 303 303 304 304 305 304 304 304 304 306 310 311 311 311 311 310 310 310 309 308 307 306 306 306 305 304 303 303 303 304 304 304 304 306 307 308 308 309 310 310 310 310 309 309 308 307 305 298 299 300 306 304 304 303 303 304 303 302 301 300 299 299 297 298 297 297 297 297 297 297 296 294
298 297 296 297 297 296 297 297 299 300 300 301 301 302 302 303 303 303 303 304 304 305 304 304 305 307 309 311 311 311 311 310 307 307 308 307 307 307 307 305 304 304 303 303 303 303 304 305 306 307 308 308 308 309 309 310 309 309 309 309 308 307 306 305 305 304 303 301 302 302 302 302 302 301 299 299 300 299 297 296 295 296 296 295 294 294 291
302 301 300 300 300 300 300 299 299 300 300 300 300 301 302 303 304 304 303 303 304 305 306 306 305 306 307 309 310 310 308 307 307 308 308 308 308 309 309 308 307 305 303 302 302 302 303 303 303 306 307 307 307 308 309 309 309 308 308 308 306 306 306 304 304 304 302 302 303 304 302 300 298 295 297 299 298 298 298 297 297 296 295 295 294 293 291
301 300 300 299 299 300 301 301 301 301 301 301 301 301 302 303 304 304 304 303 305 306 306 306 305 304 304 305 305 307 307 307 307 307 308 308 308 309 309 309 308 306 304 302 302 303 304 304 291 288 305 306 307 306 306 307 309 307 307 307 305 304 303 302 303 303 303 303 301 299 298 295 295 297 297 298 297 298 297 297 297 296 296 295 294 294 294
301 300 300 300 301 301 300 300 301 301 302 302 301 302 302 303 304 305 305 304 304 305 305 306 305 303 302 302 303 304 304 305 305 306 306 307 308 308 307 307 307 306 305 302 302 304 304 303 292 289 302 306 306 306 302 288 308 307 307 307 306 305 304 304 303 303 302 301 299 298 296 297 298 298 297 298 298 297 296 295 294 295 295 294 294 294 293
302 301 301 302 302 300 300 301 302 302 301 302 302 303 303 303 304 304 304 304 304 305 305 305 305 305 304 303 303 303 303 304 305 305 306 307 307 306 305 304 304 304 302 302 304 305 304 300 293 301 308 307 308 307 300 287 290 307 308 306 305 304 303 303 301 301 300 300 299 300 300 299 299 299 298 298 297 296 295 295 294 294 294 294 293 293 292
301 302 302 302 303 302 301 302 303 304 302 301 302 302 303 302 303 303 303 303 304 303 304 304 306 304 303 302 302 302 302 303 304 305 305 305 305 304 301 301 300 300 300 302 306 304 303 302 306 307 306 307 308 309 301 295 293 308 307 307 306 304 302 302 301 300 299 301 301 300 300 298 299 298 298 297 297 296 294 294 294 294 294 293 292 291 290
300 300 301 302 301 302 301 302 303 303 304 304 303 302 302 301 301 301 301 302 303 302 304 304 304 302 302 301 301 301 302 304 305 306 305 305 304 303 303 302 301 301 300 295 305 305 298 291 300 308 308 309 309 308 305 300 296 309 308 307 305 304 303 301 302 300 299 298 297 294 298 298 298 297 295 296 296 295 294 294 293 293 292 292 292 291 289
301 301 302 302 302 302 302 302 302 303 303 303 303 304 304 302 302 302 301 301 302 303 303 303 303 303 302 302 301 301 302 302 304 305 307 307 304 302 300 298 300 302 301 301 304 303 300 300 304 307 308 308 308 299 309 299 307 310 310 309 306 306 304 302 301 301 301 299 299 299 298 297 296 296 295 295 295 295 293 293 293 293 294 292 291 290 289
301 302 302 302 301 302 302 303 303 303 302 303 302 303 304 304 303 302 302 303 303 303 303 303 297 303 304 303 303 302 302 302 303 302 303 302 302 303 300 299 300 301 289 295 298 300 307 306 304 299 305 306 304 290 287 303 309 308 308 307 306 304 304 301 301 300 300 301 300 299 298 298 297 296 295 295 294 294 294 294 294 294 293 292 291 290 289
300 301 301 300 301 303 303 303 302 303 302 302 304 304 304 304 304 304 303 303 303 303 302 302 302 300 302 304 303 301 301 302 302 303 303 302 302 302 300 299 301 301 288 300 305 307 305 306 305 304 291 295 300 288 288 307 310 308 307 305 303 304 303 302 302 301 301 301 299 299 299 298 298 297 296 297 296 296 296 295 295 294 293 292 292 291 290
300 301 302 302 302 303 303 302 303 302 302 302 304 304 304 304 304 304 303 302 302 303 303 302 302 302 302 303 303 301 301 302 302 303 304 302 302 300 298 297 300 299 290 300 306 305 304 303 303 295 289 287 288 287 301 307 306 306 307 306 304 305 303 304 303 303 302 301 300 300 299 297 298 298 298 298 298 297 297 296 296 295 294 293 293 292 292
302 302 302 303 303 304 303 303 303 302 303 303 304 304 304 304 304 304 304 303 301 302 303 302 302 301 302 302 302 302 302 302 302 303 302 301 300 299 298 294 299 301 299 290 304 305 306 303 294 285 288 286 287 286 306 306 305 304 306 306 306 305 305 305 303 303 302 301 300 300 299 299 299 299 300 299 295 297 296 296 295 294 293 293 294 293 293
302 302 302 298 302 303 303 303 303 305 303 303 303 303 303 304 304 304 304 304 303 303 303 303 302 302 302 302 302 302 302 302 302 302 301 301 299 300 298 293 297 295 291 290 303 303 301 287 286 287 286 286 286 300 307 305 304 305 305 306 305 304 306 305 304 304 303 302 302 302 301 301 301 300 299 298 298 298 296 293 293 294 294 294 295 295 295
302 303 303 303 304 303 304 304 304 304 303 302 301 302 303 304 304 304 304 304 304 304 304 303 303 302 303 302 302 302 302 303 302 302 302 301 299 299 295 291 291 291 295 303 302 302 299 299 293 288 286 287 287 305 305 305 305 305 304 305 305 306 305 306 305 305 305 305 302 300 297 301 302 302 299 296 297 296 295 295 295 294 295 295 295 295 293
303 303 303 303 303 304 305 304 303 301 300 299 301 302 304 305 305 304 304 305 305 304 304 304 303 303 303 303 304 303 303 302 301 301 301 302 304 305 304 305 298 287 290 292 291 290 285 287 286 286 287 287 302 304 301 303 303 303 303 303 305 305 306 305 305 305 304 302 302 304 303 303 302 301 299 298 297 297 297 297 296 295 295 296 296 296 294
304 303 304 304 304 304 303 302 302 300 301 301 302 303 305 305 304 304 303 304 304 304 303 304 304 304 304 301 302 303 300 300 300 300 301 301 301 302 303 297 289 289 296 303 303 301 289 286 287 287 287 287 303 303 303 303 302 301 301 302 304 304 304 305 306 306 304 304 304 304 304 303 303 302 300 299 298 298 297 298 299 297 296 295 294 292 292
304 304 303 303 303 302 303 302 301 302 302 303 302 303 304 305 303 303 303 303 303 301 304 303 303 304 304 304 304 304 303 301 301 302 302 301 301 302 301 301 300 292 291 302 303 301 288 285 287 290 296 305 305 304 305 304 304 303 304 300 302 304 302 298 295 297 302 302 304 302 303 302 303 300 299 300 299 297 297 297 295 290 287 290 290 290 289
301 300 300 299 301 303 304 303 303 303 304 304 305 304 304 303 303 303 303 303 303 302 302 302 303 304 304 304 304 304 304 302 300 296 301 301 301 296 295 298 298 295 298 300 303 303 304 303 302 299 301 302 303 302 302 304 303 301 300 302 303 303 301 299 300 302 303 303 302 302 302 302 301 300 300 299 297 296 294 293 292 292 291 291 289 288 287
300 301 302 302 301 301 302 302 302 303 303 303 303 303 304 304 302 302 303 298 303 303 302 302 302 303 304 304 303 304 304 302 301 303 299 300 301 302 298 293 300 298 301 302 302 303 302 300 294 293 295 303 303 300 294 293 300 301 301 297 297 301 300 301 300 301 301 302 302 302 300 301 301 300 299 298 297 296 294 295 294 293 291 290 290 289 287
Wind_Speed
7 4 6 5 5 6 7 9 10 9 9 11 11 10 8 7 8 7 5 6 3 3 3 5 5 3 2 3 4 5 3 5 6 7 9 11 11 12 13 13 13 14 14 14 14 14 13 13 14 13 13 12 12 11 12 13 13 14 14 15 14 14 13 13 13 14 13 13 12 12 11 11 11 10 10 9 10 10 9 8 7 6 6 6 7 6 6
8 4 3 4 6 7 9 9 9 7 8 9 9 9 9 10 11 12 13 11 4 5 4 7 7 3 4 5 5 6 6 7 9 10 11 13 13 14 15 15 15 14 14 14 14 14 14 15 15 14 13 13 13 13 13 13 14 14 14 14 14 14 13 12 12 13 13 12 11 11 11 11 10 10 9 8 8 9 9 8 7 7 6 7 7 7 7
5 1 1 4 6 6 9 7 8 8 8 9 9 10 11 8 9 12 17 13 4 9 9 8 5 6 7 8 7 6 4 7 10 12 12 13 14 14 14 14 14 14 14 14 15 15 15 15 15 14 12 13 12 13 12 13 14 14 15 14 14 14 14 12 12 12 12 11 11 12 12 10 9 10 10 9 9 10 9 8 8 8 7 8 7 7 7
3 1 4 3 5 5 7 9 7 6 8 7 5 5 6 5 7 12 6 9 9 7 8 7 7 12 11 11 10 8 7 7 10 12 13 13 14 14 14 14 14 15 15 15 16 16 15 14 15 13 12 12 12 13 13 14 13 13 12 13 13 13 13 13 13 14 12 12 12 11 10 11 11 10 9 10 10 10 9 9 9 9 9 8 8 7 6
3 2 2 3 3 5 5 4 10 11 9 7 10 8 9 9 10 5 5 5 6 7 7 8 7 10 13 13 11 10 9 9 8 11 12 13 13 13 13 14 14 14 15 15 15 14 13 14 14 14 13 13 13 14 14 13 13 13 14 14 14 14 13 13 13 12 12 12 12 11 12 12 11 11 11 10 10 10 10 9 9 10 9 8 7 7 7
4 4 3 3 4 4 7 8 10 8 9 11 12 12 13 12 8 3 6 5 9 10 8 5 6 7 13 12 12 11 9 9 10 10 11 12 12 12 12 12 13 13 12 11 12 13 13 13 13 13 13 13 13 13 13 14 14 14 14 14 12 13 12 13 12 11 11 11 11 12 12 10 10 10 10 10 9 9 9 8 9 10 9 9 7 7 6
4 5 3 4 7 6 9 8 11 13 9 8 15 14 12 14 17 17 15 15 17 15 9 6 8 5 8 16 15 15 14 11 9 10 12 11 12 12 13 13 13 13 12 13 13 13 13 13 13 13 13 12 12 13 13 13 12 12 11 12 12 12 12 11 11 10 11 11 11 11 10 11 10 10 10 10 10 9 9 10 10 10 10 9 8 7 7
3 3 2 4 5 4 5 7 8 14 10 8 12 6 11 16 16 14 16 18 18 15 11 6 9 10 8 12 16 16 14 12 10 10 8 11 12 12 11 12 13 13 13 14 14 14 13 13 13 13 13 13 14 13 13 13 12 11 11 11 11 12 12 12 13 12 12 11 11 10 10 10 10 10 10 10 11 9 9 9 8 8 7 7 8 8 8
5 5 5 5 2 1 7 4 10 11 9 13 10 7 10 17 15 14 14 16 16 15 11 10 7 10 6 9 15 16 15 13 12 10 9 10 7 11 12 12 13 12 13 14 15 14 14 14 13 12 13 13 13 14 13 12 14 13 12 13 13 12 13 13 12 13 12 11 11 11 12 11 11 11 11 11 10 9 10 10 10 9 9 7 7 8 9
2 5 1 1 1 5 7 9 7 7 9 12 8 5 5 15 19 17 16 15 16 17 15 9 0 9 11 15 12 13 14 13 12 11 10 9 10 8 10 13 13 14 13 14 14 14 14 14 13 13 13 13 13 13 12 12 12 12 13 12 11 12 11 11 11 10 10 12 12 12 12 13 12 11 9 9 10 9 10 10 9 10 9 7 7 9 9
4 3 3 5 5 3 7 13 14 14 12 10 7 5 6 13 19 16 16 13 14 14 14 15 10 9 11 10 10 11 11 12 12 11 10 10 9 9 10 9 13 14 13 14 14 14 14 14 13 13 13 12 12 12 12 12 11 11 11 11 11 11 9 10 10 10 11 11 11 10 11 10 10 11 10 9 9 9 9 9 9 9 8 8 8 7 8
4 4 4 5 5 5 12 15 15 16 11 6 5 2 9 16 17 14 13 14 13 11 12 9 10 8 8 10 9 10 10 11 12 11 12 11 11 10 9 11 9 9 12 13 13 14 14 14 14 14 15 13 12 12 12 11 11 10 10 11 10 10 10 9 9 10 9 9 10 10 11 11 11 9 9 10 10 9 8 8 8 8 8 8 9 7 7
3 6 3 2 3 2 12 17 19 16 4 2 3 9 8 15 15 14 11 13 12 10 9 7 4 7 9 8 7 9 11 12 13 12 13 12 11 11 11 10 10 11 12 11 10 10 10 13 14 13 12 12 12 11 11 11 11 10 8 8 9 9 9 9 9 8 9 10 10 10 10 9 8 8 9 9 9 7 10 9 9 7 7 8 9 8 7
7 7 4 4 1 1 13 20 14 16 9 5 8 8 10 12 13 12 10 12 11 9 10 9 9 9 10 9 10 12 12 10 12 13 13 13 13 13 12 11 12 11 12 12 12 12 11 10 7 7 8 9 10 9 9 8 8 9 9 8 8 7 8 9 8 8 9 8 9 8 9 9 9 8 8 9 10 10 9 9 10 9 8 8 8 8 7
2 6 6 2 4 5 17 18 8 13 6 5 6 10 12 12 12 10 9 10 10 9 8 11 11 12 13 13 12 11 10 10 12 13 15 14 13 12 13 13 11 12 12 12 12 10 10 10 10 10 11 11 9 7 7 7 6 7 8 10 9 9 10 10 10 10 9 9 7 7 9 10 10 10 9 10 9 9 10 10 10 10 10 9 8 7 6
4 6 7 5 4 9 11 12 6 9 7 7 8 8 10 9 10 11 7 9 9 9 9 9 11 12 13 14 11 11 10 11 12 12 13 12 12 13 14 13 12 13 13 12 12 9 8 9 10 10 11 11 9 10 10 8 8 8 8 8 8 8 9 9 11 10 11 11 10 9 9 9 9 9 10 10 9 8 8 9 10 10 9 9 9 8 8
4 4 4 7 8 7 8 9 9 10 11 11 11 11 12 12 10 11 8 10 11 10 10 12 11 12 13 14 15 16 16 17 16 15 13 14 14 14 15 14 13 14 15 15 14 13 10 11 10 10 10 12 11 11 8 8 8 9 9 9 7 7 7 7 8 8 8 7 7 7 8 8 8 9 10 9 8 6 8 8 9 8 9 9 9 8 7
2 1 7 9 9 12 13 13 11 12 13 13 12 13 11 11 9 8 9 11 12 12 12 12 12 11 12 14 15 15 16 15 16 16 16 16 15 16 15 15 16 16 16 16 16 16 15 15 13 12 11 11 10 8 7 8 9 9 9 8 8 9 8 8 8 8 9 8 7 8 8 8 9 8 8 8 9 8 7 7 8 9 8 8 7 7 6
2 4 13 13 10 11 16 14 13 13 15 14 12 10 9 9 9 9 10 11 13 14 15 15 14 14 14 14 15 15 14 14 15 15 16 16 16 16 15 13 14 15 15 15 16 15 15 13 12 12 12 11 9 7 7 7 8 8 8 8 8 9 9 8 7 7 9 7 7 7 8 7 7 8 9 9 8 7 6 7 8 8 7 7 6 4 3
7 3 9 12 8 5 14 14 15 16 17 15 12 8 7 6 7 8 9 11 12 13 14 16 16 16 16 15 15 16 16 14 13 14 15 15 15 15 15 14 15 16 15 15 15 14 13 11 11 11 11 11 9 8 8 7 7 6 6 7 8 8 9 8 7 8 8 10 9 7 8 6 5 4 6 7 6 5 5 7 8 7 7 6 6 5 5
6 5 15 17 9 7 18 18 18 16 14 13 14 13 11 11 11 11 12 13 13 13 14 15 15 17 16 17 16 15 13 13 14 15 15 15 15 14 15 15 16 14 14 16 15 14 12 11 11 12 12 10 10 9 7 7 7 7 7 7 8 10 9 8 9 9 9 8 8 8 8 9 10 8 6 5 3 6 6 4 2 5 7 6 5 6 7
11 10 11 15 10 7 13 16 18 18 16 14 14 12 12 13 12 10 13 14 14 13 14 15 16 17 15 16 15 15 14 14 15 16 15 14 14 15 14 14 17 17 17 17 16 14 12 11 11 12 12 11 10 9 7 7 9 10 9 9 10 10 8 8 8 8 8 8 8 8 7 7 8 8 12 14 9 4 4 7 11 12 10 3 1 4 5
6 9 10 9 7 7 10 13 16 16 15 13 13 12 12 12 12 10 12 14 16 16 15 15 16 16 16 16 17 17 15 16 15 15 16 14 12 14 15 16 16 15 14 16 17 15 13 11 12 13 13 12 11 10 9 8 8 9 9 8 8 8 9 7 7 8 8 8 8 8 8 8 7 6 5 10 15 14 10 10 12 14 14 13 14 14 7
6 8 8 10 10 11 12 14 14 12 9 11 12 12 12 11 11 10 12 14 16 15 15 15 15 16 16 14 14 14 13 13 15 16 16 14 13 14 15 14 14 14 15 16 16 14 13 13 14 13 13 13 12 11 11 10 10 10 10 9 9 8 7 8 8 8 7 8 8 8 7 6 6 8 7 7 9 15 15 14 16 16 14 13 12 10 10
5 8 8 9 10 12 11 10 10 9 10 13 10 10 10 11 11 11 13 14 14 15 14 14 14 14 16 15 14 12 12 12 11 11 11 9 12 13 12 14 14 13 12 11 12 12 13 14 14 14 14 13 12 12 11 11 10 11 9 8 9 9 8 7 8 7 7 7 6 6 7 6 5 5 8 9 8 5 8 13 16 16 16 15 13 11 10
5 7 8 7 9 10 11 10 14 17 13 12 10 8 10 11 11 10 12 13 13 13 13 13 14 14 14 14 13 13 13 13 11 10 12 12 11 10 12 13 12 10 10 11 12 12 13 14 14 13 14 13 12 12 12 11 11 11 10 10 9 7 7 8 7 6 6 6 6 5 6 6 5 4 4 7 8 7 6 4 6 9 13 16 14 10 13
9 10 11 8 11 12 12 14 11 13 12 11 11 9 9 10 11 10 11 11 12 13 13 13 12 11 12 12 14 13 13 13 13 14 13 13 14 12 11 10 11 12 12 12 12 11 10 11 12 13 13 12 11 11 10 11 11 11 11 11 10 9 11 6 7 7 6 6 5 5 5 6 5 6 6 7 7 5 4 5 5 6 5 7 12 14 8
9 9 8 9 9 9 9 11 13 12 10 12 13 13 12 10 11 12 12 12 12 12 12 12 12 12 12 11 12 12 13 14 14 14 14 14 12 11 11 12 12 13 12 13 12 12 11 11 12 12 12 11 10 10 9 9 9 9 9 9 9 8 8 8 8 7 7 7 6 6 6 5 5 6 6 6 6 5 6 6 7 6 6 6 7 9 14
8 7 6 5 4 5 5 8 11 13 13 13 11 12 14 12 12 12 12 11 10 11 11 11 11 11 12 12 11 12 13 13 13 13 12 11 11 11 10 11 12 12 13 13 12 12 12 12 12 12 12 10 10 10 9 9 9 8 8 8 7 7 7 7 7 7 7 8 8 7 7 6 6 6 6 6 6 6 6 6 6 6 6 6 6 8 10
6 6 7 8 8 9 9 9 10 11 12 12 13 12 13 13 12 11 11 11 9 9 10 10 9 10 11 12 12 12 12 13 12 11 11 10 10 10 10 9 10 11 12 13 12 11 12 12 11 12 11 10 9 9 9 8 9 10 10 10 9 7 6 5 7 7 7 7 7 5 7 6 6 6 6 5 5 6 6 7 6 7 7 7 7 7 8
3 6 8 8 9 9 10 9 9 9 10 12 13 13 13 13 13 13 13 11 10 10 10 9 9 9 10 10 10 11 11 11 11 10 10 10 11 11 11 11 10 10 10 10 10 10 11 11 10 10 9 9 9 9 8 7 7 8 8 9 9 10 11 13 9 7 6 6 6 6 6 6 6 6 6 6 7 7 7 7 7 7 7 7 8 7 8
4 7 9 10 10 11 9 9 8 9 10 10 13 15 14 13 14 13 12 11 10 9 9 9 9 8 7 8 9 10 11 11 10 10 10 10 10 10 10 11 11 10 9 9 9 9 9 9 10 9 8 9 9 9 8 8 8 7 8 7 7 8 6 5 8 8 7 7 6 6 6 6 6 6 6 7 7 7 7 7 7 7 7 8 8 7 6
8 7 9 10 9 9 9 10 9 9 9 11 10 10 11 10 10 10 10 10 9 10 9 8 7 5 5 6 8 9 10 10 10 10 10 10 10 10 10 9 10 10 10 9 8 8 8 9 9 8 8 8 8 9 8 8 8 7 7 7 8 8 8 8 7 7 7 7 6 6 6 6 6 6 6 7 7 7 7 8 8 8 8 8 7 5 5
8 7 6 7 7 8 9 8 8 8 7 8 9 9 9 9 9 9 9 9 9 10 9 8 7 6 4 5 6 7 7 8 8 8 8 9 8 8 9 9 10 10 10 9 9 9 8 9 9 8 9 9 9 8 8 8 7 7 7 7 7 7 7 7 7 7 7 8 7 6 6 6 6 6 6 7 7 7 7 8 7 8 8 7 6 6 8
5 4 5 5 6 8 8 7 6 6 7 8 9 9 9 8 7 8 8 9 10 10 9 8 8 7 6 5 6 7 7 7 6 7 7 7 7 7 7 8 9 9 10 10 9 8 9 9 9 8 8 8 9 8 8 8 7 7 8 8 8 7 7 7 7 7 6 6 6 6 6 6 6 6 7 7 8 8 8 8 8 8 7 8 7 7 7
7 6 4 5 7 8 8 8 7 7 7 7 8 8 7 7 8 8 9 9 7 8 8 8 8 7 8 7 7 7 6 6 6 5 5 5 5 5 5 6 7 9 9 9 8 7 7 7 9 9 5 7 7 8 7 7 8 8 8 7 7 7 7 7 7 7 7 6 6 7 7 7 7 7 7 7 8 8 8 9 8 7 7 7 7 7 7
6 6 5 4 5 6 8 8 9 7 7 7 8 8 8 8 9 8 7 7 7 8 8 7 8 9 8 7 6 6 6 5 5 4 4 4 4 5 6 7 7 7 7 7 6 5 5 6 7 9 3 7 7 8 7 9 6 7 6 6 6 6 6 6 6 6 7 7 7 7 7 7 7 7 7 7 7 7 7 7 7 7 7 6 6 6 6
6 4 4 5 4 5 5 7 7 9 8 7 7 7 7 6 6 7 7 7 7 8 7 8 7 7 6 6 7 7 7 6 6 5 4 5 5 7 7 7 6 6 6 6 5 5 5 5 8 2 6 6 7 7 5 8 8 4 6 6 6 6 6 6 6 6 6 6 6 6 6 6 7 7 7 7 7 7 6 7 6 6 6 5 5 5 5
6 4 3 4 4 3 4 5 5 6 8 9 7 6 5 5 5 6 6 7 7 7 6 6 7 6 7 7 6 6 7 6 6 6 6 7 7 9 7 6 5 5 4 3 4 4 4 4 4 6 5 6 6 8 6 3 9 5 6 6 6 6 6 6 5 6 6 5 5 6 6 6 7 7 7 7 8 7 6 7 7 6 6 5 5 5 5
5 4 5 5 5 4 5 6 5 5 6 6 7 6 5 6 6 6 5 5 5 6 6 5 6 6 7 7 6 6 6 6 5 5 5 5 6 7 6 6 6 5 4 6 2 4 4 9 3 5 4 5 5 6 5 3 8 5 6 6 5 6 6 6 6 6 6 6 6 6 7 7 7 7 7 7 7 6 6 6 6 6 6 5 5 5 5
4 3 3 4 4 4 4 4 4 4 5 7 7 6 5 6 7 7 7 7 6 5 6 6 4 5 6 6 6 6 6 6 6 5 4 5 6 6 5 4 5 5 5 4 4 4 4 5 6 4 5 4 5 7 3 3 3 5 5 6 6 5 5 6 6 6 5 5 5 6 6 7 7 8 7 7 7 6 5 6 5 5 5 5 5 5 5
5 2 3 4 4 3 2 2 2 3 5 6 7 6 6 7 7 7 7 7 6 5 5 5 5 4 4 4 5 5 6 6 6 6 7 7 6 5 5 4 5 4 7 6 4 4 1 4 5 5 4 4 4 7 9 6 4 2 3 4 5 6 6 6 6 6 5 5 6 6 6 6 7 7 7 7 7 6 6 6 5 5 5 5 5 5 5
4 2 3 3 3 3 1 2 3 3 4 5 5 5 5 6 6 7 8 7 6 6 5 5 3 4 2 4 3 4 4 4 3 4 6 7 8 7 5 2 3 4 7 3 3 3 3 3 3 4 6 6 4 6 8 2 3 3 4 4 5 4 5 5 6 5 5 5 6 6 6 6 7 7 7 8 7 6 6 6 6 6 6 5 5 5 5
3 2 2 2 2 3 2 2 2 3 3 3 2 4 5 5 5 7 8 8 7 6 6 6 6 6 5 3 3 3 3 3 3 2 3 5 5 5 4 3 3 3 4 3 3 3 3 3 3 4 6 5 7 7 4 1 1 2 3 3 4 4 5 5 5 5 6 6 6 6 6 7 7 7 7 8 8 6 6 6 5 5 5 5 6 6 6
1 3 2 3 2 3 3 2 2 3 3 2 3 4 4 5 5 6 8 8 7 6 6 6 6 5 5 4 4 3 3 3 3 3 2 2 3 3 3 3 1 2 3 7 2 3 3 3 4 5 4 6 6 8 4 2 2 2 1 2 3 4 4 4 5 6 6 6 6 6 7 6 7 7 7 7 6 6 7 6 6 5 5 5 5 6 6
2 1 2 1 2 3 4 4 3 3 2 2 2 2 3 4 5 5 7 8 7 6 5 5 5 5 4 4 3 3 2 2 3 3 3 3 2 2 3 2 3 4 6 7 3 3 3 3 3 3 5 5 8 7 1 2 1 1 1 1 3 3 4 4 5 6 6 7 7 7 7 7 7 7 7 6 6 6 6 7 6 5 5 5 5 6 6
2 1 2 2 1 0 1 2 3 3 1 1 2 2 1 2 3 4 4 6 6 6 6 6 5 4 4 4 4 3 3 1 4 3 2 1 2 1 3 2 2 4 6 0 3 2 2 1 2 3 4 4 8 2 2 1 2 1 1 1 1 2 3 4 4 4 6 7 7 7 8 8 7 8 8 7 7 7 7 7 6 6 5 6 7 7 7
2 1 0 0 1 1 2 2 2 3 5 4 3 1 3 2 1 2 3 3 4 5 5 5 5 4 4 4 4 5 5 5 2 4 3 3 2 2 2 3 4 5 3 3 4 4 3 3 3 5 5 6 2 2 1 1 1 1 2 1 1 1 2 3 3 4 5 7 7 7 7 7 7 7 7 7 7 7 7 7 7 7 6 7 7 7 7
2 1 1 1 2 2 2 3 3 3 4 4 3 2 1 1 1 2 2 2 3 2 4 4 4 4 4 4 3 4 4 3 3 3 2 1 2 3 2 4 6 4 5 2 1 3 3 2 2 4 6 8 2 2 2 2 2 3 2 0 1 1 1 2 2 4 5 6 6 7 7 7 8 8 7 6 7 6 6 6 7 7 7 7 7 7 7
4 3 2 3 3 3 4 3 2 3 3 4 3 2 1 1 2 2 1 1 1 2 3 4 4 4 4 3 3 3 3 2 1 1 2 2 0 1 1 3 3 4 6 3 1 3 7 6 6 3 5 1 2 1 2 3 3 3 3 2 2 3 2 4 5 4 3 5 5 6 7 7 7 7 7 6 5 5 5 5 5 8 10 7 7 7 7
7 7 6 5 4 4 5 5 5 5 4 3 4 4 3 2 1 1 1 1 2 2 2 3 3 3 3 3 2 3 2 2 2 2 2 1 2 2 3 2 2 1 1 2 1 1 1 1 2 1 2 2 2 2 1 1 3 3 2 3 2 2 3 3 4 4 4 4 5 6 6 6 6 6 6 6 6 5 5 6 6 5 4 4 5 5 5
8 8 6 5 5 4 4 5 6 5 5 5 4 4 4 4 4 3 1 2 1 2 1 1 2 3 2 2 2 2 2 2 1 1 1 1 2 1 3 4 2 3 2 1 2 1 2 3 4 3 3 1 3 3 4 2 2 2 2 2 2 2 2 3 4 3 4 4 4 5 5 5 6 5 5 5 6 6 6 6 6 5 6 5 5 6 5
Wind_Direction
291 292 284 278 272 257 267 287 291 281 263 245 241 246 285 314 270 276 314 261 197 16 17 348 321 335 342 115 162 178 199 213 205 197 184 177 176 170 170 170 169 168 167 167 167 167 168 168 167 166 167 168 166 166 170 174 176 180 179 183 180 180 181 179 184 188 188 186 186 184 174 187 189 186 180 176 164 160 166 162 164 171 174 175 173 192 187
292 275 253 270 270 270 277 292 307 299 285 275 265 272 275 252 247 260 277 292 253 69 3 356 314 339 76 103 142 161 181 197 190 187 184 179 176 176 173 173 172 173 171 169 170 168 169 169 167 167 166 167 168 169 171 173 177 176 178 180 178 180 179 181 183 186 185 182 183 181 181 187 183 178 169 155 160 162 167 160 161 169 170 168 172 180 176
303 292 235 258 263 292 290 297 292 284 264 260 260 267 264 273 247 245 252 255 52 35 30 353 329 69 64 89 111 119 127 158 170 173 176 175 176 177 175 173 176 174 173 171 170 170 171 171 169 168 168 167 166 168 171 173 174 176 176 175 179 174 177 174 179 182 178 177 179 179 181 175 170 172 165 163 167 166 158 157 163 163 164 169 169 174 176
337 145 273 269 266 257 267 285 297 319 316 315 325 311 312 297 303 304 323 37 28 15 26 317 344 51 55 59 69 92 102 125 150 159 164 168 169 172 173 172 173 172 171 171 172 172 170 169 167 165 164 162 166 171 170 171 172 172 174 177 173 173 172 174 178 177 176 173 178 174 175 173 173 173 168 169 167 162 157 158 162 161 164 170 169 174 176
9 24 312 275 240 262 266 355 357 347 323 309 301 292 310 323 317 304 20 6 350 18 43 335 332 29 50 57 46 54 86 100 119 137 148 157 163 166 167 167 167 168 169 169 169 166 165 164 164 165 164 168 171 171 166 167 170 168 177 174 171 172 173 173 177 176 167 174 174 169 173 171 169 172 171 171 162 159 160 163 161 164 166 171 173 172 176
341 7 339 297 277 17 36 348 356 345 323 324 323 322 319 307 310 358 2 346 10 16 53 349 325 9 43 50 55 50 46 87 101 107 125 136 141 149 153 157 157 158 158 160 161 161 162 162 165 163 167 168 167 165 163 166 169 175 175 170 170 171 170 171 173 170 162 169 167 170 169 168 164 165 168 168 161 160 157 156 167 164 165 167 171 173 168
327 344 314 320 14 26 1 355 358 353 323 340 348 306 306 3 17 11 6 10 13 10 37 4 338 4 26 44 46 46 43 44 61 96 115 120 134 138 144 147 150 151 151 152 152 156 160 162 162 163 165 164 158 158 158 166 172 180 175 165 168 167 168 169 172 162 160 167 171 168 171 168 162 164 169 161 157 159 163 169 168 166 165 169 169 167 153
284 286 317 355 20 26 354 336 351 349 353 5 338 352 29 20 18 14 8 5 6 356 23 46 338 354 357 40 41 40 43 46 52 50 58 112 127 132 139 143 145 147 152 154 155 157 153 154 159 164 162 160 160 156 156 165 172 173 166 168 167 164 170 169 172 173 173 175 168 174 166 161 163 163 168 160 160 162 168 169 164 162 171 172 168 164 156
331 6 29 60 172 309 21 5 355 348 331 330 352 342 354 21 16 11 3 1 4 357 19 57 351 329 326 42 37 30 36 41 49 52 51 38 72 127 132 139 141 144 147 150 152 149 150 155 156 159 154 157 159 157 159 167 170 166 168 169 170 170 172 171 175 177 175 172 166 172 169 169 171 169 164 160 165 162 163 163 160 160 177 174 169 162 155
321 327 11 145 63 17 7 4 303 306 282 312 329 325 356 18 16 4 356 4 360 360 12 45 204 286 46 43 35 20 24 34 50 58 52 52 44 55 127 136 137 142 143 147 147 149 149 152 153 152 156 158 157 160 163 165 169 168 171 169 167 173 177 174 171 165 165 172 173 173 173 177 176 168 165 165 164 165 159 156 160 169 178 168 165 164 162
340 324 357 42 24 48 353 338 325 317 316 313 346 284 41 15 2 356 354 6 360 5 16 22 20 16 36 39 34 19 25 37 45 56 60 61 55 48 45 114 136 136 139 138 145 146 144 143 147 153 152 153 155 162 166 166 167 168 170 166 168 169 173 168 164 165 173 170 166 170 172 175 170 169 172 167 161 164 159 157 158 175 180 156 159 160 166
33 341 29 49 31 11 339 328 331 332 339 358 286 360 27 1 344 357 350 2 2 7 19 18 33 26 40 30 23 7 30 47 53 54 62 65 67 63 63 54 63 105 129 136 143 147 150 151 151 157 155 158 161 162 162 160 165 165 175 170 168 166 174 167 163 164 159 162 164 171 172 168 171 167 166 163 160 160 155 154 163 180 181 157 162 159 156
25 353 79 101 83 358 339 339 333 335 28 288 1 35 333 333 332 348 350 359 6 9 24 21 60 46 53 49 33 14 26 41 52 59 61 64 64 67 70 66 68 64 64 78 95 107 135 150 154 156 162 158 162 160 159 163 164 159 157 158 158 161 157 151 149 144 158 163 162 171 164 163 169 156 162 155 151 157 159 163 174 172 173 155 156 155 169
11 348 31 87 69 287 338 340 341 350 318 20 3 331 322 317 339 337 343 359 7 7 21 21 31 40 47 58 49 34 28 36 54 61 64 67 69 67 64 67 76 79 81 82 77 71 71 64 81 119 135 123 121 124 139 135 130 129 134 123 113 120 133 136 125 148 157 152 161 167 163 158 156 156 151 152 155 159 159 168 165 158 156 163 165 164 169
347 17 27 36 18 20 352 338 357 20 19 351 316 323 318 344 337 337 343 5 6 10 30 28 31 38 43 42 39 35 26 37 50 54 60 59 59 61 67 68 68 80 80 77 78 79 78 84 89 92 98 101 108 121 105 102 115 123 118 128 133 131 130 140 151 159 159 154 155 163 166 168 167 157 157 159 156 147 150 160 163 157 159 159 165 165 164
9 22 19 18 324 302 340 9 12 353 14 337 344 335 338 350 349 349 354 12 10 24 40 38 39 39 46 50 47 42 29 39 48 48 52 58 58 58 63 68 73 78 78 76 73 68 77 90 91 92 97 98 96 91 91 97 91 92 107 125 131 141 155 160 160 161 159 160 159 159 165 170 169 161 159 161 152 138 147 156 158 159 160 160 168 173 174
25 41 352 335 320 350 2 7 359 353 3 4 359 4 10 5 357 352 11 17 29 42 50 53 47 50 46 49 47 44 35 36 39 43 45 49 54 57 60 63 68 75 79 79 75 68 58 60 71 88 93 97 89 90 101 110 109 110 117 129 143 149 151 152 155 155 155 148 143 148 157 159 157 160 155 148 141 136 135 149 159 160 160 169 179 182 170
180 198 10 353 14 19 16 12 358 356 6 7 8 10 11 12 354 5 29 34 40 46 51 57 52 48 47 48 46 45 41 38 38 42 43 43 47 52 57 60 65 73 74 71 68 64 61 63 68 71 77 83 83 85 95 102 111 121 130 141 152 155 152 151 146 141 131 127 138 152 159 158 146 141 138 139 137 138 132 147 158 161 160 166 180 176 181
334 21 344 355 348 17 19 10 3 5 8 11 15 11 6 358 345 18 25 36 38 42 49 54 54 50 50 56 53 48 43 38 37 41 46 48 47 49 54 53 63 68 71 71 67 68 65 61 63 63 67 70 76 89 101 117 126 140 159 155 148 140 137 141 141 139 127 127 131 139 138 130 131 137 147 147 138 132 135 150 156 149 152 164 182 169 152
47 9 358 348 332 29 23 17 8 5 1 5 14 5 358 345 24 41 38 46 47 40 45 52 55 52 47 49 52 52 50 45 41 40 42 46 48 47 54 61 69 70 70 71 68 64 60 56 59 60 60 59 63 76 94 110 124 134 125 120 124 128 131 127 127 121 108 94 94 77 49 53 74 90 121 127 121 120 155 154 148 148 157 163 173 182 199
34 16 11 358 337 19 16 8 7 5 3 1 10 3 12 20 28 44 50 51 49 46 47 50 54 52 46 48 52 53 47 45 45 46 46 45 48 51 54 56 62 65 70 71 66 62 56 54 57 57 53 51 50 67 87 106 113 111 112 118 117 116 114 115 108 105 105 93 93 91 84 77 66 48 18 21 98 113 45 51 68 166 166 160 175 188 201
37 16 357 358 15 354 348 360 1 359 0 2 9 9 20 18 18 30 54 59 57 54 51 55 57 58 53 47 49 50 46 43 43 45 46 42 45 51 54 59 62 63 62 66 61 56 57 59 60 57 53 49 46 47 64 88 95 98 102 103 107 107 100 98 97 97 98 98 105 103 93 90 88 78 64 63 41 68 71 32 52 47 47 52 54 182 176
29 5 1 4 356 343 356 355 0 4 357 354 359 12 13 12 23 27 47 59 61 62 61 56 57 58 57 55 56 55 49 45 44 45 44 42 35 46 50 53 49 51 48 54 59 57 58 57 56 55 53 50 51 53 54 66 88 101 105 101 93 92 92 88 90 107 117 115 113 111 112 114 103 97 86 53 49 46 48 57 54 49 48 41 37 32 25
46 14 359 354 7 10 359 4 5 358 350 353 356 12 12 18 31 39 49 58 63 66 64 60 59 59 59 57 54 55 52 47 46 49 49 49 46 47 48 49 47 46 42 43 47 54 60 63 64 61 57 51 52 56 61 70 78 83 85 86 86 81 85 94 94 101 111 115 121 128 133 133 126 129 109 88 55 38 39 50 54 53 50 48 47 56 59
332 327 322 333 5 14 7 7 7 360 359 4 351 5 13 24 36 41 55 61 61 62 65 62 58 56 60 60 57 52 52 51 49 51 49 46 44 42 43 46 46 46 45 45 46 49 55 62 65 61 57 51 49 53 57 63 71 72 69 76 84 90 96 96 100 102 113 117 128 133 134 129 138 132 126 119 99 82 38 52 62 57 48 41 41 45 50
322 323 322 338 26 22 10 7 19 7 356 359 356 360 22 27 14 45 57 61 62 60 63 65 63 58 54 55 56 60 62 60 56 57 58 53 50 45 46 50 50 51 52 52 50 49 52 54 60 59 56 50 50 55 61 66 69 73 72 68 72 77 102 108 106 112 123 133 135 135 129 131 125 110 104 108 117 114 110 104 73 64 52 40 29 46 58
21 10 356 17 22 21 15 22 15 3 350 1 11 11 22 33 21 34 62 64 59 55 59 65 67 64 69 67 64 59 60 58 57 55 55 55 55 53 52 54 54 56 57 56 55 50 53 57 57 56 52 47 48 52 57 65 72 74 80 86 91 67 49 70 99 97 97 101 105 100 98 106 117 129 109 100 109 118 124 121 102 69 44 34 32 31 53
15 11 9 18 8 357 350 5 16 24 11 12 19 21 28 28 34 43 51 60 63 58 53 53 58 61 61 60 62 64 61 58 58 57 55 55 55 55 53 53 56 57 59 58 57 53 55 60 60 58 52 46 45 49 59 66 69 73 76 78 78 82 84 83 86 87 81 75 82 88 88 83 80 71 76 87 99 100 103 105 105 100 76 58 57 47 58
2 354 355 1 340 340 354 12 23 29 26 18 18 28 30 32 30 33 35 42 56 58 60 59 55 55 60 63 62 64 62 60 59 56 55 51 53 56 56 55 55 56 57 57 56 55 57 58 58 55 49 44 47 50 56 62 65 68 71 76 84 85 81 81 86 87 78 74 73 79 78 92 87 81 79 86 93 96 94 90 90 92 99 106 96 75 64
2 2 14 13 14 15 15 17 29 31 31 24 23 27 29 33 34 29 28 29 37 60 62 59 55 55 57 62 60 63 64 64 63 60 55 49 42 37 42 55 63 59 56 53 50 49 52 54 52 50 45 43 46 50 54 63 68 69 63 49 39 36 54 70 91 79 85 83 82 79 82 87 92 96 90 84 88 93 95 91 91 95 89 77 72 81 82
26 39 23 16 17 21 22 21 32 33 31 34 33 32 28 28 30 31 25 23 22 32 51 61 64 64 62 65 70 71 71 68 65 61 57 51 47 46 44 42 48 48 47 45 46 49 52 52 48 46 43 46 49 53 57 63 70 71 72 70 70 53 47 37 48 79 78 82 75 80 76 76 78 87 93 100 100 98 99 98 91 88 86 83 81 85 97
30 41 29 22 17 13 22 27 32 35 34 32 35 38 33 28 27 22 18 21 21 21 29 43 57 65 65 72 75 78 76 75 71 65 60 55 51 48 47 50 52 52 51 45 41 41 48 51 50 46 43 47 50 53 59 65 70 68 67 67 72 78 48 66 88 76 87 84 84 81 79 87 89 96 99 95 95 97 95 94 92 92 92 93 95 101 114
14 32 38 23 18 18 25 31 25 27 28 31 32 31 35 37 33 26 22 20 23 25 28 24 20 44 75 78 82 80 80 78 75 71 65 62 58 53 49 50 50 49 47 39 35 36 37 39 43 44 46 49 53 57 61 64 69 70 73 74 78 75 70 52 54 86 75 76 71 78 82 84 89 88 84 86 89 90 93 97 100 100 98 95 87 71 50
28 42 33 23 9 18 15 17 18 19 25 29 21 21 25 33 41 36 24 22 32 35 31 26 23 11 30 86 90 86 81 79 72 68 66 67 65 63 61 59 56 52 49 39 33 29 26 25 24 35 39 44 48 52 55 63 68 71 75 82 81 82 77 78 68 75 79 81 85 90 90 92 92 97 102 102 102 102 101 101 100 103 102 90 79 79 55
39 56 29 359 356 18 18 18 16 13 14 18 16 17 19 22 31 43 37 27 27 28 31 29 30 31 35 58 74 76 71 74 73 71 73 69 69 71 76 73 66 61 54 45 34 27 24 25 19 25 43 44 48 50 55 56 59 66 67 69 68 71 71 74 73 75 77 79 82 83 86 85 86 85 93 101 106 109 108 108 111 110 108 101 94 80 63
14 25 26 23 25 20 20 20 20 18 18 16 11 13 21 27 20 24 35 35 27 26 32 34 31 32 37 44 52 59 67 68 73 71 67 67 69 68 71 76 74 69 64 57 42 27 27 30 10 344 26 51 55 55 41 38 72 69 73 71 75 71 70 70 73 73 73 77 74 73 76 75 81 89 95 98 103 110 114 114 108 99 98 97 100 98 100
19 14 9 356 24 19 16 21 20 20 23 18 15 17 21 25 24 22 22 28 28 33 35 38 38 35 28 31 42 52 57 56 55 60 63 64 78 82 73 71 63 63 60 57 42 45 46 34 341 307 20 72 66 66 24 347 69 81 77 73 73 78 77 77 74 77 77 77 83 88 98 97 93 92 96 103 105 107 101 98 88 88 87 93 98 100 96
16 19 10 6 354 6 14 20 9 16 18 22 22 27 18 20 29 33 27 25 22 22 29 38 42 45 33 32 41 42 46 48 51 54 74 92 92 83 69 66 60 59 57 50 38 43 48 345 298 6 72 70 73 77 36 354 327 44 77 73 83 87 87 86 82 82 84 88 91 96 98 103 107 108 103 103 109 105 93 96 93 97 95 86 82 78 80
8 29 20 350 339 356 358 25 20 16 11 15 13 20 17 13 25 33 34 26 18 8 9 24 41 47 41 37 38 41 39 41 50 59 65 73 80 78 70 56 52 36 43 353 40 61 45 353 33 69 67 73 77 83 85 3 308 74 76 84 79 87 91 90 84 81 79 85 89 93 95 94 101 107 110 108 114 107 90 95 99 99 98 92 88 84 83
352 5 6 4 3 1 11 29 30 28 16 11 10 23 21 9 12 17 18 16 25 9 5 11 38 44 39 39 37 39 36 41 48 63 75 85 88 96 94 69 45 37 13 308 24 60 357 300 327 66 68 72 73 89 84 326 300 75 81 83 83 88 94 102 102 95 94 94 94 97 100 103 102 104 108 114 116 109 108 103 96 95 96 95 92 91 94
358 12 6 6 27 21 30 34 34 29 22 26 29 39 37 26 21 22 20 10 12 21 25 17 28 56 44 42 40 38 37 41 41 42 55 100 83 68 62 41 16 17 20 4 16 23 358 12 46 46 61 49 73 349 39 195 262 78 74 83 92 93 95 93 104 105 100 96 97 102 107 111 111 113 118 118 120 118 101 98 101 104 104 101 96 93 92
5 350 8 3 24 37 30 41 21 29 39 44 51 50 41 25 21 23 23 16 19 29 45 62 47 34 49 46 52 48 42 35 46 52 54 55 53 68 64 42 359 14 354 306 241 249 80 64 50 45 29 36 60 38 334 312 71 73 90 78 90 93 98 103 105 103 97 99 101 105 111 117 118 118 121 123 128 125 123 122 119 107 100 96 103 102 106
359 28 28 328 348 23 22 16 20 13 26 43 38 30 21 18 24 25 23 24 29 37 40 57 147 199 115 83 69 50 44 44 52 78 83 72 61 55 60 49 356 32 339 348 23 58 51 55 49 67 0 341 14 2 300 283 95 95 88 90 89 96 102 103 106 110 113 110 108 112 117 122 126 126 129 134 137 135 136 131 127 122 122 120 116 114 113
33 31 32 7 8 26 350 13 341 325 17 56 50 16 23 27 22 27 29 27 30 37 39 46 38 41 43 43 60 59 47 36 44 41 82 87 81 66 46 20 4 40 336 331 68 55 71 54 62 358 332 332 326 306 292 72 11 60 92 109 116 112 117 116 112 113 118 121 122 123 124 125 129 134 139 142 145 139 137 132 126 122 123 121 122 123 123
59 41 10 1 18 32 352 358 327 10 358 14 32 2 25 25 36 37 35 41 41 39 33 36 41 35 29 31 40 36 31 22 31 360 40 73 91 59 35 321 334 8 38 306 9 57 65 57 30 342 343 336 319 298 275 81 35 57 38 119 128 128 129 121 118 118 122 126 128 129 134 135 136 140 144 136 134 133 134 132 123 119 119 120 123 128 131
193 290 23 334 343 7 359 359 320 304 324 26 57 8 346 20 28 38 46 44 49 54 52 36 29 30 28 28 25 10 22 33 37 39 54 24 32 28 51 359 2 9 311 299 63 61 73 30 348 326 333 323 310 277 102 98 107 137 121 93 118 130 128 124 130 128 126 130 135 138 139 141 144 146 139 141 136 131 118 113 116 119 121 129 136 140 140
240 288 8 66 88 312 274 281 319 314 352 104 46 82 245 328 16 31 45 53 49 52 60 63 59 46 32 24 5 359 345 92 125 88 68 87 160 169 147 220 234 325 307 355 53 71 30 35 343 344 322 321 298 284 75 127 130 127 74 89 71 120 111 123 127 127 132 131 133 135 137 144 147 142 134 134 135 134 135 140 138 136 140 137 131 133 134
270 293 343 337 330 13 327 338 321 19 33 40 40 95 163 212 269 52 58 49 59 55 50 51 55 63 55 43 47 27 3 348 42 78 42 33 15 35 21 37 37 7 352 129 110 78 53 351 344 313 308 295 278 92 138 122 53 79 23 360 150 103 135 136 140 131 122 123 135 140 144 145 142 140 147 147 141 150 155 153 149 148 146 147 145 141 133
320 324 297 293 312 318 2 19 349 14 29 31 33 29 126 137 348 335 10 44 30 34 58 53 53 51 69 77 41 54 61 24 4 41 74 59 17 3 68 136 185 255 259 204 113 107 129 273 285 295 285 268 244 128 157 150 132 116 122 317 325 120 155 135 118 130 136 149 153 143 150 149 149 152 148 144 150 149 148 150 147 155 152 139 123 119 119
3 347 6 12 358 6 3 12 13 357 10 358 2 4 14 56 28 30 33 3 28 12 24 47 34 47 43 42 53 65 77 86 105 14 40 52 39 97 61 41 37 348 316 326 112 135 151 186 195 232 284 218 103 171 144 149 138 143 133 145 180 173 65 57 58 41 114 144 153 150 147 157 152 134 137 135 125 127 128 113 97 75 79 104 121 121 116
19 25 24 13 12 23 25 21 15 356 343 341 336 336 330 321 339 354 14 12 28 32 11 40 48 38 46 58 58 76 93 104 67 345 317 70 57 66 15 50 73 348 325 294 44 5 73 92 47 135 149 110 98 87 59 93 131 131 156 161 159 162 146 172 175 160 150 146 152 155 156 146 137 146 151 135 130 121 111 112 122 130 132 121 119 119 117
32 20 13 18 14 13 23 27 18 5 352 341 332 323 318 322 343 4 36 204 304 19 337 354 57 59 25 55 57 84 83 29 302 133 120 28 353 3 141 223 230 183 229 347 45 68 74 115 121 47 341 88 101 117 128 255 150 124 127 104 139 136 127 166 163 152 139 156 155 139 137 142 144 144 144 140 138 134 132 129 126 121 121 124 123 121 123